Regional Weather Roundup
Issued by NWS

Home | Current Version | Previous Version | Graphics & Text | Print | Product List | Glossary On
Versions: 1 2 3 4 5 6 7 8 9 10 11 12 13 14 15 16 17 18 19 20 21 22 23 24 25 26 27 28 29 30 31 32 33 34 35 36 37 38 39 40 41 42 43 44 45 46 47 48 49 50
000
ASUS45 KSLC 281310
RWRUT

UTAH REGIONAL WEATHER ROUNDUP
NATIONAL WEATHER SERVICE SALT LAKE CITY UT
700 AM MDT THU MAY 28 2015

UTZ001>011-023>025-281400-

NORTHERN UTAH

CITY           SKY/WX    TMP DP  RH WIND       PRES   REMARKS
BRIGHAM CITY   MOCLDY    52  48  87 S3        30.11R
HILL AFB       CLOUDY    50  48  93 E10       30.11F
LOGAN          MOCLDY    47  45  93 CALM      30.11R
OGDEN          MOCLDY    52  46  80 SE10      30.10S
PROVO AIRPORT  MOCLDY    46  43  87 CALM      30.11S
SALT LAKE CITY CLOUDY    53  48  83 N10       30.13R
VERNAL         SUNNY     47  43  86 CALM      30.14R
WENDOVER       PTCLDY    54  45  71 CALM      30.09R
HEBER CITY     CLEAR     41  37  87 CALM      30.15S
WEST JORDAN    CLOUDY    54  48  82 NW15      30.14R

$$

UTZ012>022-026-027-281400-

SOUTHERN/CENTRAL UTAH

CITY           SKY/WX    TMP DP  RH WIND       PRES   REMARKS
BLANDING       SUNNY     46  42  85 NW3       30.21R
BRYCE CANYON   CLEAR     37  34  89 W7        30.23R WCI  32
CEDAR CITY     PTCLDY    44  43  96 NE3       30.13R
DELTA          PTCLDY    45  42  89 CALM      30.12R
HANKSVILLE     CLEAR     48  43  81 CALM      30.13R
MILFORD        MOCLDY    49  46  90 W3        30.10R
MOAB/CYNLANDS  SUNNY     52  45  77 CALM      30.10S
PRICE          CLEAR     47  42  83 CALM      30.15R
ST GEORGE      SUNNY     59  37  44 SE5       30.04R
KANAB          CLEAR     46  39  76 N3        30.14S

$$

REGIONAL REPORTS     COLORADO/ARIZONA

CITY           SKY/WX    TMP DP  RH WIND       PRES   REMARKS
CRAIG, CO      CLOUDY    49  44  83 CALM      30.17R
GRAND JUNCTION SUNNY     50  48  93 W8        30.13R
RIFLE          MOSUNNY   49  45  86 CALM      30.16S
MONTROSE       PTSUNNY   47  43  86 S8        30.18S
CORTEZ         SUNNY     44  38  79 E3        30.15R
PAGE, AZ       CLEAR     60  44  55 CALM      30.07R
GRAND CANYON   CLEAR     37  32  82 CALM      30.20R
KINGMAN        CLEAR     56  20  24 S6        30.01R
FLAGSTAFF      CLEAR     37  30  75 CALM      30.22R

$$

REGIONAL REPORTS    NEVADA/IDAHO/WYOMING

CITY           SKY/WX    TMP DP  RH WIND       PRES   REMARKS
LAS VEGAS, NV  CLEAR     72  36  26 SW6       29.89R
ELY            CLEAR     38  37  97 S6        30.17R WCI  33
ELKO           CLOUDY    47  42  83 E3        30.12R
POCATELLO, ID  MOCLDY    47  46  97 N8        30.09R
BURLEY         CLEAR     46  42  86 S5        30.07R
EVANSTON, WY   MOSUNNY   42  39  89 CALM      30.18R
ROCK SPRINGS   SUNNY     45  38  76 SW10      30.16R
KEMMERER       MOSUNNY   41  37  87 N3        30.18S

$$


USA.gov is the U.S. government's official web portal to all federal, state and local government web resources and services.